Year,Month,Day,Hour,Minute,Value (Times are PST for temperature in C)
2014,03,31,00,00,6.50
2014,03,31,00,01,6.50
2014,03,31,00,02,6.50
2014,03,31,00,03,6.40
2014,03,31,00,04,6.40
2014,03,31,00,05,6.40
2014,03,31,00,06,6.40
2014,03,31,00,07,6.40
2014,03,31,00,08,6.40
2014,03,31,00,09,6.40
2014,03,31,00,10,6.40
2014,03,31,00,11,6.40
2014,03,31,00,12,6.40
2014,03,31,00,13,6.40
2014,03,31,00,14,6.40
2014,03,31,00,15,6.40
2014,03,31,00,16,6.30
2014,03,31,00,17,6.30
2014,03,31,00,18,6.30
2014,03,31,00,19,6.30
2014,03,31,00,20,6.30
2014,03,31,00,21,6.30
2014,03,31,00,22,6.30
2014,03,31,00,23,6.30
2014,03,31,00,24,6.30
2014,03,31,00,25,6.30
2014,03,31,00,26,6.30
2014,03,31,00,27,6.30
2014,03,31,00,28,6.30
2014,03,31,00,29,6.20
2014,03,31,00,30,6.20
2014,03,31,00,31,6.20
2014,03,31,00,32,6.20
2014,03,31,00,33,6.20
2014,03,31,00,34,6.20
2014,03,31,00,35,6.20
2014,03,31,00,36,6.20
2014,03,31,00,37,6.20
2014,03,31,00,38,6.10
2014,03,31,00,39,6.10
2014,03,31,00,40,6.10
2014,03,31,00,41,6.10
2014,03,31,00,42,6.10
2014,03,31,00,43,6.10
2014,03,31,00,44,6.10
2014,03,31,00,45,6.10
2014,03,31,00,46,6.10
2014,03,31,00,47,6.10
2014,03,31,00,48,6.10
2014,03,31,00,49,6.10
2014,03,31,00,50,6.10
2014,03,31,00,51,6.10
2014,03,31,00,52,6.00
2014,03,31,00,53,6.00
2014,03,31,00,54,6.00
2014,03,31,00,55,6.00
2014,03,31,00,56,6.00
2014,03,31,00,57,6.00
2014,03,31,00,58,6.00
2014,03,31,00,59,6.00
2014,03,31,01,00,6.00
2014,03,31,01,01,6.00
2014,03,31,01,02,6.00
2014,03,31,01,03,6.00
2014,03,31,01,04,6.00
2014,03,31,01,05,6.10
2014,03,31,01,06,6.10
2014,03,31,01,07,6.10
2014,03,31,01,08,6.10
2014,03,31,01,09,6.10
2014,03,31,01,10,6.10
2014,03,31,01,11,6.10
2014,03,31,01,12,6.10
2014,03,31,01,13,6.10
2014,03,31,01,14,6.10
2014,03,31,01,15,6.10
2014,03,31,01,16,6.10
2014,03,31,01,17,6.10
2014,03,31,01,18,6.10
2014,03,31,01,19,6.10
2014,03,31,01,20,6.10
2014,03,31,01,21,6.10
2014,03,31,01,22,6.10
2014,03,31,01,23,6.10
2014,03,31,01,24,6.10
2014,03,31,01,25,6.10
2014,03,31,01,26,6.10
2014,03,31,01,27,6.10
2014,03,31,01,28,6.10
2014,03,31,01,29,6.10
2014,03,31,01,30,6.10
2014,03,31,01,31,6.10
2014,03,31,01,32,6.10
2014,03,31,01,33,6.10
2014,03,31,01,34,6.10
2014,03,31,01,35,6.10
2014,03,31,01,36,6.10
2014,03,31,01,37,6.10
2014,03,31,01,38,6.10
2014,03,31,01,39,6.10
2014,03,31,01,40,6.20
2014,03,31,01,41,6.20
2014,03,31,01,42,6.20
2014,03,31,01,43,6.20
2014,03,31,01,44,6.20
2014,03,31,01,45,6.20
2014,03,31,01,46,6.30
2014,03,31,01,47,6.30
2014,03,31,01,48,6.40
2014,03,31,01,49,6.40
2014,03,31,01,50,6.40
2014,03,31,01,51,6.50
2014,03,31,01,52,6.50
2014,03,31,01,53,6.50
2014,03,31,01,54,6.60
2014,03,31,01,55,6.60
2014,03,31,01,56,6.60
2014,03,31,01,57,6.70
2014,03,31,01,58,6.70
2014,03,31,01,59,6.80
2014,03,31,02,00,6.80
2014,03,31,02,01,6.80
2014,03,31,02,02,6.90
2014,03,31,02,03,6.90
2014,03,31,02,04,6.90
2014,03,31,02,05,6.90
2014,03,31,02,06,7.00
2014,03,31,02,07,7.00
2014,03,31,02,08,7.10
2014,03,31,02,09,7.10
2014,03,31,02,10,7.10
2014,03,31,02,11,7.10
2014,03,31,02,12,7.20
2014,03,31,02,13,7.20
2014,03,31,02,14,7.20
2014,03,31,02,15,7.20
2014,03,31,02,16,7.20
2014,03,31,02,17,7.30
2014,03,31,02,18,7.30
2014,03,31,02,19,7.30
2014,03,31,02,20,7.30
2014,03,31,02,21,7.30
2014,03,31,02,22,7.30
2014,03,31,02,23,7.30
2014,03,31,02,24,7.30
2014,03,31,02,25,7.30
2014,03,31,02,26,7.30
2014,03,31,02,27,7.30
2014,03,31,02,28,7.30
2014,03,31,02,29,7.40
2014,03,31,02,30,7.40
2014,03,31,02,31,7.40
2014,03,31,02,32,7.40
2014,03,31,02,33,7.40
2014,03,31,02,34,7.40
2014,03,31,02,35,7.40
2014,03,31,02,36,7.30
2014,03,31,02,37,7.40
2014,03,31,02,38,7.30
2014,03,31,02,39,7.40
2014,03,31,02,40,7.30
2014,03,31,02,41,7.30
2014,03,31,02,42,7.30
2014,03,31,02,43,7.40
2014,03,31,02,44,7.30
2014,03,31,02,45,7.30
2014,03,31,02,46,7.30
2014,03,31,02,47,7.40
2014,03,31,02,48,7.30
2014,03,31,02,49,7.30
2014,03,31,02,50,7.30
2014,03,31,02,51,7.30
2014,03,31,02,52,7.30
2014,03,31,02,53,7.30
2014,03,31,02,54,7.30
2014,03,31,02,55,7.30
2014,03,31,02,56,7.30
2014,03,31,02,57,7.30
2014,03,31,02,58,7.30
2014,03,31,02,59,7.30
2014,03,31,03,00,7.30
2014,03,31,03,01,7.30
2014,03,31,03,02,7.30
2014,03,31,03,03,7.30
2014,03,31,03,04,7.30
2014,03,31,03,05,7.30
2014,03,31,03,06,7.30
2014,03,31,03,07,7.30
2014,03,31,03,08,7.30
2014,03,31,03,09,7.20
2014,03,31,03,10,7.20
2014,03,31,03,11,7.20
2014,03,31,03,12,7.20
2014,03,31,03,13,7.20
2014,03,31,03,14,7.20
2014,03,31,03,15,7.20
2014,03,31,03,16,7.20
2014,03,31,03,17,7.20
2014,03,31,03,18,7.20
2014,03,31,03,19,7.20
2014,03,31,03,20,7.20
2014,03,31,03,21,7.20
2014,03,31,03,22,7.20
2014,03,31,03,23,7.20
2014,03,31,03,24,7.20
2014,03,31,03,25,7.20
2014,03,31,03,26,7.20
2014,03,31,03,27,7.20
2014,03,31,03,28,7.20
2014,03,31,03,29,7.20
2014,03,31,03,30,7.20
2014,03,31,03,31,7.20
2014,03,31,03,32,7.20
2014,03,31,03,33,7.20
2014,03,31,03,34,7.20
2014,03,31,03,35,7.20
2014,03,31,03,36,7.20
2014,03,31,03,37,7.20
2014,03,31,03,38,7.20
2014,03,31,03,39,7.20
2014,03,31,03,40,7.20
2014,03,31,03,41,7.20
2014,03,31,03,42,7.10
2014,03,31,03,43,7.10
2014,03,31,03,44,7.10
2014,03,31,03,45,7.10
2014,03,31,03,46,7.10
2014,03,31,03,47,7.10
2014,03,31,03,48,7.10
2014,03,31,03,49,7.10
2014,03,31,03,50,7.10
2014,03,31,03,51,7.10
2014,03,31,03,52,7.10
2014,03,31,03,53,7.10
2014,03,31,03,54,7.10
2014,03,31,03,55,7.00
2014,03,31,03,56,7.00
2014,03,31,03,57,7.00
2014,03,31,03,58,7.00
2014,03,31,03,59,7.00
2014,03,31,04,00,7.00
2014,03,31,04,01,7.00
2014,03,31,04,02,6.90
2014,03,31,04,03,6.90
2014,03,31,04,04,6.90
2014,03,31,04,05,6.90
2014,03,31,04,06,6.90
2014,03,31,04,07,6.90
2014,03,31,04,08,6.90
2014,03,31,04,09,6.90
2014,03,31,04,10,6.90
2014,03,31,04,11,6.90
2014,03,31,04,12,6.90
2014,03,31,04,13,6.90
2014,03,31,04,14,6.90
2014,03,31,04,15,6.90
2014,03,31,04,16,6.90
2014,03,31,04,17,6.90
2014,03,31,04,18,6.90
2014,03,31,04,19,6.90
2014,03,31,04,20,6.90
2014,03,31,04,21,6.90
2014,03,31,04,22,6.90
2014,03,31,04,23,6.90
2014,03,31,04,24,6.90
2014,03,31,04,25,6.90
2014,03,31,04,26,6.90
2014,03,31,04,27,6.90
2014,03,31,04,28,6.90
2014,03,31,04,29,6.90
2014,03,31,04,30,6.90
2014,03,31,04,31,6.90
2014,03,31,04,32,6.90
2014,03,31,04,33,6.90
2014,03,31,04,34,6.90
2014,03,31,04,35,6.90
2014,03,31,04,36,6.90
2014,03,31,04,37,6.90
2014,03,31,04,38,6.90
2014,03,31,04,39,6.90
2014,03,31,04,40,6.90
2014,03,31,04,41,6.90
2014,03,31,04,42,6.90
2014,03,31,04,43,6.90
2014,03,31,04,44,6.90
2014,03,31,04,45,6.90
2014,03,31,04,46,6.90
2014,03,31,04,47,6.90
2014,03,31,04,48,6.90
2014,03,31,04,49,6.90
2014,03,31,04,50,6.90
2014,03,31,04,51,6.90
2014,03,31,04,52,6.90
2014,03,31,04,53,6.80
2014,03,31,04,54,6.80
2014,03,31,04,55,6.80
2014,03,31,04,56,6.80
2014,03,31,04,57,6.80
2014,03,31,04,58,6.80
2014,03,31,04,59,6.80
2014,03,31,05,00,6.80
2014,03,31,05,01,6.80
2014,03,31,05,02,6.80
2014,03,31,05,03,6.80
2014,03,31,05,04,6.80
2014,03,31,05,05,6.80
2014,03,31,05,06,6.70
2014,03,31,05,07,6.70
2014,03,31,05,08,6.70
2014,03,31,05,09,6.70
2014,03,31,05,10,6.70
2014,03,31,05,11,6.70
2014,03,31,05,12,6.70
2014,03,31,05,13,6.70
2014,03,31,05,14,6.70
2014,03,31,05,15,6.70
2014,03,31,05,16,6.60
2014,03,31,05,17,6.60
2014,03,31,05,18,6.60
2014,03,31,05,19,6.60
2014,03,31,05,20,6.60
2014,03,31,05,21,6.60
2014,03,31,05,22,6.60
2014,03,31,05,23,6.60
2014,03,31,05,24,6.50
2014,03,31,05,25,6.50
2014,03,31,05,26,6.50
2014,03,31,05,27,6.50
2014,03,31,05,28,6.50
2014,03,31,05,29,6.50
2014,03,31,05,30,6.40
2014,03,31,05,31,6.40
2014,03,31,05,32,6.40
2014,03,31,05,33,6.40
2014,03,31,05,34,6.40
2014,03,31,05,35,6.40
2014,03,31,05,36,6.30
2014,03,31,05,37,6.30
2014,03,31,05,38,6.30
2014,03,31,05,39,6.30
2014,03,31,05,40,6.30
2014,03,31,05,41,6.20
2014,03,31,05,42,6.20
2014,03,31,05,43,6.20
2014,03,31,05,44,6.20
2014,03,31,05,45,6.20
2014,03,31,05,46,6.10
2014,03,31,05,47,6.10
2014,03,31,05,48,6.10
2014,03,31,05,49,6.10
2014,03,31,05,50,6.00
2014,03,31,05,51,6.00
2014,03,31,05,52,6.00
2014,03,31,05,53,5.90
2014,03,31,05,54,5.90
2014,03,31,05,55,5.80
2014,03,31,05,56,5.80
2014,03,31,05,57,5.80
2014,03,31,05,58,5.80
2014,03,31,05,59,5.80
2014,03,31,06,00,5.70
2014,03,31,06,01,5.70
2014,03,31,06,02,5.70
2014,03,31,06,03,5.70
2014,03,31,06,04,5.60
2014,03,31,06,05,5.60
2014,03,31,06,06,5.60
2014,03,31,06,07,5.60
2014,03,31,06,08,5.50
2014,03,31,06,09,5.50
2014,03,31,06,10,5.50
2014,03,31,06,11,5.40
2014,03,31,06,12,5.40
2014,03,31,06,13,5.40
2014,03,31,06,14,5.40
2014,03,31,06,15,5.30
2014,03,31,06,16,5.30
2014,03,31,06,17,5.30
2014,03,31,06,18,5.30
2014,03,31,06,19,5.20
2014,03,31,06,20,5.20
2014,03,31,06,21,5.20
2014,03,31,06,22,5.10
2014,03,31,06,23,5.10
2014,03,31,06,24,5.10
2014,03,31,06,25,5.10
2014,03,31,06,26,5.00
2014,03,31,06,27,5.00
2014,03,31,06,28,5.00
2014,03,31,06,29,4.90
2014,03,31,06,30,4.90
2014,03,31,06,31,4.90
2014,03,31,06,32,4.90
2014,03,31,06,33,4.80
2014,03,31,06,34,4.80
2014,03,31,06,35,4.80
2014,03,31,06,36,4.70
2014,03,31,06,37,4.70
2014,03,31,06,38,4.70
2014,03,31,06,39,4.70
2014,03,31,06,40,4.60
2014,03,31,06,41,4.60
2014,03,31,06,42,4.60
2014,03,31,06,43,4.50
2014,03,31,06,44,4.50
2014,03,31,06,45,4.40
2014,03,31,06,46,4.40
2014,03,31,06,47,4.40
2014,03,31,06,48,4.40
2014,03,31,06,49,4.30
2014,03,31,06,50,4.30
2014,03,31,06,51,4.30
2014,03,31,06,52,4.30
2014,03,31,06,53,4.20
2014,03,31,06,54,4.20
2014,03,31,06,55,4.10
2014,03,31,06,56,4.10
2014,03,31,06,57,4.10
2014,03,31,06,58,4.10
2014,03,31,06,59,4.10
2014,03,31,07,00,4.00
2014,03,31,07,01,4.00
2014,03,31,07,02,4.00
2014,03,31,07,03,4.00
2014,03,31,07,04,4.00
2014,03,31,07,05,4.00
2014,03,31,07,06,4.00
2014,03,31,07,07,3.90
2014,03,31,07,08,4.00
2014,03,31,07,09,4.00
2014,03,31,07,10,3.90
2014,03,31,07,11,3.90
2014,03,31,07,12,3.90
2014,03,31,07,13,3.90
2014,03,31,07,14,3.90
2014,03,31,07,15,3.90
2014,03,31,07,16,3.90
2014,03,31,07,17,3.90
2014,03,31,07,18,3.90
2014,03,31,07,19,3.90
2014,03,31,07,20,3.90
2014,03,31,07,21,3.90
2014,03,31,07,22,3.90
2014,03,31,07,23,3.90
2014,03,31,07,24,3.90
2014,03,31,07,25,3.90
2014,03,31,07,26,3.90
2014,03,31,07,27,3.90
2014,03,31,07,28,3.90
2014,03,31,07,29,3.90
2014,03,31,07,30,3.90
2014,03,31,07,31,3.90
2014,03,31,07,32,3.90
2014,03,31,07,33,3.90
2014,03,31,07,34,3.90
2014,03,31,07,35,3.90
2014,03,31,07,36,3.90
2014,03,31,07,37,3.90
2014,03,31,07,38,3.90
2014,03,31,07,39,3.90
2014,03,31,07,40,3.90
2014,03,31,07,41,3.90
2014,03,31,07,42,3.90
2014,03,31,07,43,3.90
2014,03,31,07,44,4.00
2014,03,31,07,45,4.00
2014,03,31,07,46,4.00
2014,03,31,07,47,4.00
2014,03,31,07,48,4.00
2014,03,31,07,49,4.10
2014,03,31,07,50,4.10
2014,03,31,07,51,4.10
2014,03,31,07,52,4.10
2014,03,31,07,53,4.10
2014,03,31,07,54,4.10
2014,03,31,07,55,4.20
2014,03,31,07,56,4.20
2014,03,31,07,57,4.20
2014,03,31,07,58,4.20
2014,03,31,07,59,4.30
2014,03,31,08,00,4.30
2014,03,31,08,01,4.30
2014,03,31,08,02,4.30
2014,03,31,08,03,4.40
2014,03,31,08,04,4.40
2014,03,31,08,05,4.40
2014,03,31,08,06,4.40
2014,03,31,08,07,4.50
2014,03,31,08,08,4.50
2014,03,31,08,09,4.50
2014,03,31,08,10,4.60
2014,03,31,08,11,4.60
2014,03,31,08,12,4.60
2014,03,31,08,13,4.70
2014,03,31,08,14,4.70
2014,03,31,08,15,4.70
2014,03,31,08,16,4.80
2014,03,31,08,17,4.80
2014,03,31,08,18,4.80
2014,03,31,08,19,4.90
2014,03,31,08,20,4.90
2014,03,31,08,21,4.90
2014,03,31,08,22,5.00
2014,03,31,08,23,5.00
2014,03,31,08,24,5.00
2014,03,31,08,25,5.10
2014,03,31,08,26,5.10
2014,03,31,08,27,5.20
2014,03,31,08,28,5.20
2014,03,31,08,29,5.20
2014,03,31,08,30,5.30
2014,03,31,08,31,5.30
2014,03,31,08,32,5.30
2014,03,31,08,33,5.40
2014,03,31,08,34,5.40
2014,03,31,08,35,5.40
2014,03,31,08,36,5.40
2014,03,31,08,37,5.40
2014,03,31,08,38,5.40
2014,03,31,08,39,5.40
2014,03,31,08,40,5.50
2014,03,31,08,41,5.50
2014,03,31,08,42,5.50
2014,03,31,08,43,5.60
2014,03,31,08,44,5.60
2014,03,31,08,45,5.70
2014,03,31,08,46,5.70
2014,03,31,08,47,5.80
2014,03,31,08,48,5.80
2014,03,31,08,49,5.80
2014,03,31,08,50,5.90
2014,03,31,08,51,5.90
2014,03,31,08,52,5.90
2014,03,31,08,53,6.00
2014,03,31,08,54,6.00
2014,03,31,08,55,6.10
2014,03,31,08,56,6.10
2014,03,31,08,57,6.20
2014,03,31,08,58,6.20
2014,03,31,08,59,6.30
2014,03,31,09,00,6.30
2014,03,31,09,01,6.30
2014,03,31,09,02,6.40
2014,03,31,09,03,6.40
2014,03,31,09,04,6.50
2014,03,31,09,05,6.50
2014,03,31,09,06,6.60
2014,03,31,09,07,6.60
2014,03,31,09,08,6.60
2014,03,31,09,09,6.60
2014,03,31,09,10,6.70
2014,03,31,09,11,6.70
2014,03,31,09,12,6.80
2014,03,31,09,13,6.80
2014,03,31,09,14,6.80
2014,03,31,09,15,6.80
2014,03,31,09,16,6.90
2014,03,31,09,17,6.90
2014,03,31,09,18,6.90
2014,03,31,09,19,7.00
2014,03,31,09,20,7.00
2014,03,31,09,21,7.00
2014,03,31,09,22,7.10
2014,03,31,09,23,7.10
2014,03,31,09,24,7.10
2014,03,31,09,25,7.10
2014,03,31,09,26,7.10
2014,03,31,09,27,7.10
2014,03,31,09,28,7.10
2014,03,31,09,29,7.10
2014,03,31,09,30,7.10
2014,03,31,09,31,7.10
2014,03,31,09,32,7.10
2014,03,31,09,33,7.10
2014,03,31,09,34,7.10
2014,03,31,09,35,7.10
2014,03,31,09,36,7.10
2014,03,31,09,37,7.10
2014,03,31,09,38,7.20
2014,03,31,09,39,7.20
2014,03,31,09,40,7.20
2014,03,31,09,41,7.20
2014,03,31,09,42,7.20
2014,03,31,09,43,7.20
2014,03,31,09,44,7.20
2014,03,31,09,45,7.20
2014,03,31,09,46,7.20
2014,03,31,09,47,7.20
2014,03,31,09,48,7.20
2014,03,31,09,49,7.20
2014,03,31,09,50,7.20
2014,03,31,09,51,7.20
2014,03,31,09,52,7.20
2014,03,31,09,53,7.20
2014,03,31,09,54,7.30
2014,03,31,09,55,7.30
2014,03,31,09,56,7.30
2014,03,31,09,57,7.30
2014,03,31,09,58,7.30
2014,03,31,09,59,7.30
2014,03,31,10,00,7.20
2014,03,31,10,01,7.20
2014,03,31,10,02,7.20
2014,03,31,10,03,7.20
2014,03,31,10,04,7.20
2014,03,31,10,05,7.20
2014,03,31,10,06,7.20
2014,03,31,10,07,7.20
2014,03,31,10,08,7.20
2014,03,31,10,09,7.20
2014,03,31,10,10,7.20
2014,03,31,10,11,7.20
2014,03,31,10,12,7.20
2014,03,31,10,13,7.20
2014,03,31,10,14,7.20
2014,03,31,10,15,7.20
2014,03,31,10,16,7.20
2014,03,31,10,17,7.30
2014,03,31,10,18,7.30
2014,03,31,10,19,7.30
2014,03,31,10,20,7.30
2014,03,31,10,21,7.40
2014,03,31,10,22,7.40
2014,03,31,10,23,7.50
2014,03,31,10,24,7.50
2014,03,31,10,25,7.60
2014,03,31,10,26,7.60
2014,03,31,10,27,7.70
2014,03,31,10,28,7.70
2014,03,31,10,29,7.70
2014,03,31,10,30,7.70
2014,03,31,10,31,7.70
2014,03,31,10,32,7.70
2014,03,31,10,33,7.70
2014,03,31,10,34,7.70
2014,03,31,10,35,7.70
2014,03,31,10,36,7.70
2014,03,31,10,37,7.70
2014,03,31,10,38,7.60
2014,03,31,10,39,7.60
2014,03,31,10,40,7.60
2014,03,31,10,41,7.60
2014,03,31,10,42,7.60
2014,03,31,10,43,7.70
2014,03,31,10,44,7.70
2014,03,31,10,45,7.70
2014,03,31,10,46,7.70
2014,03,31,10,47,7.70
2014,03,31,10,48,7.70
2014,03,31,10,49,7.70
2014,03,31,10,50,7.80
2014,03,31,10,51,7.80
2014,03,31,10,52,7.80
2014,03,31,10,53,7.80
2014,03,31,10,54,7.90
2014,03,31,10,55,7.90
2014,03,31,10,56,8.00
2014,03,31,10,57,8.00
2014,03,31,10,58,8.10
2014,03,31,10,59,8.10
2014,03,31,11,00,8.20
2014,03,31,11,01,8.20
2014,03,31,11,02,8.30
2014,03,31,11,03,8.30
2014,03,31,11,04,8.40
2014,03,31,11,05,8.50
2014,03,31,11,06,8.60
2014,03,31,11,07,8.70
2014,03,31,11,08,8.70
2014,03,31,11,09,8.80
2014,03,31,11,10,8.90
2014,03,31,11,11,9.00
2014,03,31,11,12,9.00
2014,03,31,11,13,9.10
2014,03,31,11,14,9.10
2014,03,31,11,15,9.00
2014,03,31,11,16,9.00
2014,03,31,11,17,9.00
2014,03,31,11,18,8.90
2014,03,31,11,19,8.90
2014,03,31,11,20,8.90
2014,03,31,11,21,8.90
2014,03,31,11,22,8.90
2014,03,31,11,23,8.90
2014,03,31,11,24,8.90
2014,03,31,11,25,8.90
2014,03,31,11,26,8.90
2014,03,31,11,27,9.00
2014,03,31,11,28,9.00
2014,03,31,11,29,9.00
2014,03,31,11,30,9.10
2014,03,31,11,31,9.10
2014,03,31,11,32,9.10
2014,03,31,11,33,9.10
2014,03,31,11,34,9.10
2014,03,31,11,35,9.20
2014,03,31,11,36,9.20
2014,03,31,11,37,9.20
2014,03,31,11,38,9.30
2014,03,31,11,39,9.30
2014,03,31,11,40,9.30
2014,03,31,11,41,9.40
2014,03,31,11,42,9.50
2014,03,31,11,43,9.50
2014,03,31,11,44,9.50
2014,03,31,11,45,9.60
2014,03,31,11,46,9.70
2014,03,31,11,47,9.80
2014,03,31,11,48,9.80
2014,03,31,11,49,10.00
2014,03,31,11,50,10.00
2014,03,31,11,51,10.10
2014,03,31,11,52,10.10
2014,03,31,11,53,10.10
2014,03,31,11,54,10.10
2014,03,31,11,55,10.10
2014,03,31,11,56,10.20
2014,03,31,11,57,10.20
2014,03,31,11,58,10.20
2014,03,31,11,59,10.20
2014,03,31,12,00,10.20
2014,03,31,12,01,10.20
2014,03,31,12,02,10.20
2014,03,31,12,03,10.30
2014,03,31,12,04,10.30
2014,03,31,12,05,10.30
2014,03,31,12,06,10.30
2014,03,31,12,07,10.20
2014,03,31,12,08,10.20
2014,03,31,12,09,10.20
2014,03,31,12,10,10.10
2014,03,31,12,11,10.10
2014,03,31,12,12,10.00
2014,03,31,12,13,10.00
2014,03,31,12,14,10.00
2014,03,31,12,15,10.00
2014,03,31,12,16,10.00
2014,03,31,12,17,10.10
2014,03,31,12,18,10.10
2014,03,31,12,19,10.10
2014,03,31,12,20,10.20
2014,03,31,12,21,10.20
2014,03,31,12,22,10.20
2014,03,31,12,23,10.20
2014,03,31,12,24,10.20
2014,03,31,12,25,10.10
2014,03,31,12,26,10.10
2014,03,31,12,27,10.00
2014,03,31,12,28,10.00
2014,03,31,12,29,10.00
2014,03,31,12,30,10.00
2014,03,31,12,31,9.90
2014,03,31,12,32,9.90
2014,03,31,12,33,10.00
2014,03,31,12,34,10.00
2014,03,31,12,35,10.10
2014,03,31,12,36,10.10
2014,03,31,12,37,10.10
2014,03,31,12,38,10.10
2014,03,31,12,39,10.20
2014,03,31,12,40,10.20
2014,03,31,12,41,10.20
2014,03,31,12,42,10.20
2014,03,31,12,43,10.20
2014,03,31,12,44,10.20
2014,03,31,12,45,10.20
2014,03,31,12,46,10.20
2014,03,31,12,47,10.30
2014,03,31,12,48,10.30
2014,03,31,12,49,10.30
2014,03,31,12,50,10.30
2014,03,31,12,51,10.20
2014,03,31,12,52,10.20
2014,03,31,12,53,10.20
2014,03,31,12,54,10.20
2014,03,31,12,55,10.20
2014,03,31,12,56,10.20
2014,03,31,12,57,10.30
2014,03,31,12,58,10.40
2014,03,31,12,59,10.40
2014,03,31,13,00,10.40
2014,03,31,13,01,10.50
2014,03,31,13,02,10.50
2014,03,31,13,03,10.40
2014,03,31,13,04,10.40
2014,03,31,13,05,10.30
2014,03,31,13,06,10.30
2014,03,31,13,07,10.30
2014,03,31,13,08,10.30
2014,03,31,13,09,10.30
2014,03,31,13,10,10.20
2014,03,31,13,11,10.20
2014,03,31,13,12,10.20
2014,03,31,13,13,10.10
2014,03,31,13,14,10.10
2014,03,31,13,15,10.10
2014,03,31,13,16,10.10
2014,03,31,13,17,10.10
2014,03,31,13,18,10.10
2014,03,31,13,19,10.10
2014,03,31,13,20,10.10
2014,03,31,13,21,10.10
2014,03,31,13,22,10.10
2014,03,31,13,23,10.20
2014,03,31,13,24,10.30
2014,03,31,13,25,10.30
2014,03,31,13,26,10.30
2014,03,31,13,27,10.40
2014,03,31,13,28,10.40
2014,03,31,13,29,10.40
2014,03,31,13,30,10.50
2014,03,31,13,31,10.50
2014,03,31,13,32,10.60
2014,03,31,13,33,10.60
2014,03,31,13,34,10.60
2014,03,31,13,35,10.60
2014,03,31,13,36,10.50
2014,03,31,13,37,10.40
2014,03,31,13,38,10.40
2014,03,31,13,39,10.40
2014,03,31,13,40,10.50
2014,03,31,13,41,10.50
2014,03,31,13,42,10.60
2014,03,31,13,43,10.60
2014,03,31,13,44,10.60
2014,03,31,13,45,10.60
2014,03,31,13,46,10.60
2014,03,31,13,47,10.60
2014,03,31,13,48,10.70
2014,03,31,13,49,10.80
2014,03,31,13,50,10.80
2014,03,31,13,51,10.90
2014,03,31,13,52,11.00
2014,03,31,13,53,11.10
2014,03,31,13,54,11.10
2014,03,31,13,55,11.10
2014,03,31,13,56,11.20
2014,03,31,13,57,11.20
2014,03,31,13,58,11.20
2014,03,31,13,59,11.20
2014,03,31,14,00,11.20
2014,03,31,14,01,11.30
2014,03,31,14,02,11.30
2014,03,31,14,03,11.30
2014,03,31,14,04,11.30
2014,03,31,14,05,11.30
2014,03,31,14,06,11.30
2014,03,31,14,07,11.30
2014,03,31,14,08,11.20
2014,03,31,14,09,11.20
2014,03,31,14,10,11.20
2014,03,31,14,11,11.30
2014,03,31,14,12,11.40
2014,03,31,14,13,11.50
2014,03,31,14,14,11.50
2014,03,31,14,15,11.60
2014,03,31,14,16,11.70
2014,03,31,14,17,11.70
2014,03,31,14,18,11.70
2014,03,31,14,19,11.70
2014,03,31,14,20,11.80
2014,03,31,14,21,11.80
2014,03,31,14,22,11.80
2014,03,31,14,23,11.80
2014,03,31,14,24,11.90
2014,03,31,14,25,11.90
2014,03,31,14,26,11.90
2014,03,31,14,27,11.80
2014,03,31,14,28,11.80
2014,03,31,14,29,11.80
2014,03,31,14,30,11.70
2014,03,31,14,31,11.80
2014,03,31,14,32,11.80
2014,03,31,14,33,11.80
2014,03,31,14,34,11.80
2014,03,31,14,35,11.80
2014,03,31,14,36,11.80
2014,03,31,14,37,11.70
2014,03,31,14,38,11.70
2014,03,31,14,39,11.70
2014,03,31,14,40,11.70
2014,03,31,14,41,11.80
2014,03,31,14,42,11.80
2014,03,31,14,43,11.80
2014,03,31,14,44,11.90
2014,03,31,14,45,11.90
2014,03,31,14,46,11.80
2014,03,31,14,47,11.80
2014,03,31,14,48,11.80
2014,03,31,14,49,11.80
2014,03,31,14,50,11.80
2014,03,31,14,51,11.90
2014,03,31,14,52,11.90
2014,03,31,14,53,11.90
2014,03,31,14,54,11.90
2014,03,31,14,55,11.90
2014,03,31,14,56,11.90
2014,03,31,14,57,11.80
2014,03,31,14,58,11.80
2014,03,31,14,59,11.80
2014,03,31,15,00,11.80
2014,03,31,15,01,11.80
2014,03,31,15,02,11.80
2014,03,31,15,03,11.80
2014,03,31,15,04,11.80
2014,03,31,15,05,11.80
2014,03,31,15,06,11.80
2014,03,31,15,07,11.80
2014,03,31,15,08,11.80
2014,03,31,15,09,11.80
2014,03,31,15,10,11.80
2014,03,31,15,11,11.80
2014,03,31,15,12,11.80
2014,03,31,15,13,11.80
2014,03,31,15,14,11.80
2014,03,31,15,15,11.80
2014,03,31,15,16,11.80
2014,03,31,15,17,11.90
2014,03,31,15,18,12.00
2014,03,31,15,19,12.10
2014,03,31,15,20,12.10
2014,03,31,15,21,12.20
2014,03,31,15,22,12.30
2014,03,31,15,23,12.30
2014,03,31,15,24,12.30
2014,03,31,15,25,12.30
2014,03,31,15,26,12.30
2014,03,31,15,27,12.40
2014,03,31,15,28,12.40
2014,03,31,15,29,12.40
2014,03,31,15,30,12.40
2014,03,31,15,31,12.50
2014,03,31,15,32,12.50
2014,03,31,15,33,12.60
2014,03,31,15,34,12.70
2014,03,31,15,35,12.70
2014,03,31,15,36,12.70
2014,03,31,15,37,12.70
2014,03,31,15,38,12.70
2014,03,31,15,39,12.60
2014,03,31,15,40,12.60
2014,03,31,15,41,12.60
2014,03,31,15,42,12.50
2014,03,31,15,43,12.50
2014,03,31,15,44,12.50
2014,03,31,15,45,12.40
2014,03,31,15,46,12.30
2014,03,31,15,47,12.30
2014,03,31,15,48,12.30
2014,03,31,15,49,12.30
2014,03,31,15,50,12.30
2014,03,31,15,51,12.40
2014,03,31,15,52,12.50
2014,03,31,15,53,12.60
2014,03,31,15,54,12.70
2014,03,31,15,55,12.70
2014,03,31,15,56,12.70
2014,03,31,15,57,12.70
2014,03,31,15,58,12.70
2014,03,31,15,59,12.70
2014,03,31,16,00,12.70
2014,03,31,16,01,12.80
2014,03,31,16,02,12.80
2014,03,31,16,03,12.90
2014,03,31,16,04,12.90
2014,03,31,16,05,13.00
2014,03,31,16,06,13.10
2014,03,31,16,07,13.20
2014,03,31,16,08,13.20
2014,03,31,16,09,13.20
2014,03,31,16,10,13.20
2014,03,31,16,11,13.30
2014,03,31,16,12,13.30
2014,03,31,16,13,13.40
2014,03,31,16,14,13.40
2014,03,31,16,15,13.30
2014,03,31,16,16,13.20
2014,03,31,16,17,13.20
2014,03,31,16,18,13.00
2014,03,31,16,19,12.90
2014,03,31,16,20,12.80
2014,03,31,16,21,12.80
2014,03,31,16,22,12.70
2014,03,31,16,23,12.70
2014,03,31,16,24,12.70
2014,03,31,16,25,12.70
2014,03,31,16,26,12.70
2014,03,31,16,27,12.70
2014,03,31,16,28,12.70
2014,03,31,16,29,12.60
2014,03,31,16,30,12.60
2014,03,31,16,31,12.60
2014,03,31,16,32,12.60
2014,03,31,16,33,12.60
2014,03,31,16,34,12.60
2014,03,31,16,35,12.60
2014,03,31,16,36,12.60
2014,03,31,16,37,12.60
2014,03,31,16,38,12.60
2014,03,31,16,39,12.60
2014,03,31,16,40,12.60
2014,03,31,16,41,12.60
2014,03,31,16,42,12.60
2014,03,31,16,43,12.60
2014,03,31,16,44,12.60
2014,03,31,16,45,12.60
2014,03,31,16,46,12.60
2014,03,31,16,47,12.50
2014,03,31,16,48,12.50
2014,03,31,16,49,12.40
2014,03,31,16,50,12.40
2014,03,31,16,51,12.40
2014,03,31,16,52,12.40
2014,03,31,16,53,12.30
2014,03,31,16,54,12.30
2014,03,31,16,55,12.30
2014,03,31,16,56,12.30
2014,03,31,16,57,12.40
2014,03,31,16,58,12.50
2014,03,31,16,59,12.50
2014,03,31,17,00,12.60
2014,03,31,17,01,12.50
2014,03,31,17,02,12.50
2014,03,31,17,03,12.40
2014,03,31,17,04,12.40
2014,03,31,17,05,12.30
2014,03,31,17,06,12.30
2014,03,31,17,07,12.30
2014,03,31,17,08,12.30
2014,03,31,17,09,12.20
2014,03,31,17,10,12.20
2014,03,31,17,11,12.20
2014,03,31,17,12,12.20
2014,03,31,17,13,12.20
2014,03,31,17,14,12.10
2014,03,31,17,15,12.10
2014,03,31,17,16,12.10
2014,03,31,17,17,12.10
2014,03,31,17,18,12.10
2014,03,31,17,19,12.10
2014,03,31,17,20,12.10
2014,03,31,17,21,12.10
2014,03,31,17,22,12.10
2014,03,31,17,23,12.10
2014,03,31,17,24,12.20
2014,03,31,17,25,12.20
2014,03,31,17,26,12.30
2014,03,31,17,27,12.30
2014,03,31,17,28,12.30
2014,03,31,17,29,12.20
2014,03,31,17,30,12.20
2014,03,31,17,31,12.20
2014,03,31,17,32,12.20
2014,03,31,17,33,12.10
2014,03,31,17,34,12.10
2014,03,31,17,35,12.10
2014,03,31,17,36,12.20
2014,03,31,17,37,12.20
2014,03,31,17,38,12.20
2014,03,31,17,39,12.20
2014,03,31,17,40,12.20
2014,03,31,17,41,12.30
2014,03,31,17,42,12.30
2014,03,31,17,43,12.40
2014,03,31,17,44,12.40
2014,03,31,17,45,12.40
2014,03,31,17,46,12.40
2014,03,31,17,47,12.40
2014,03,31,17,48,12.40
2014,03,31,17,49,12.40
2014,03,31,17,50,12.40